sat.trackr.live / text

‹ back to catalog

ONEWEB-0025

NORAD 45138 · 2020-008H

PAYLOAD ACTIVE UNKNOWN

§ Identity

Operator
Country
UK
Launch date
2020-02-06
Launch site
TYMSC
Launch vehicle
Mass (kg)
RCS (m²)

Purposes: comms

External: N2YO · Heavens-Above · Gunter

§ Orbital elements

Epoch: 2026-09-20T02:36:41.551200Z

Period
109.89 min
Inclination
87.8912°
Eccentricity
0.0001567
Mean motion
13.10370931 rev/d
Perigee alt
1,220.5 km
Apogee alt
1,222.9 km
Semi-major
7,599.9 km
B*
-1.5866e-3
RAAN
17.3583°
Arg perigee
115.9506°
Mean anomaly
244.1783°
Rev number
32,100

§ Raw data

ONEWEB-00251 45138U 20008H   26263.10881425 -.00000541  00000+0 -15866-2 0  99982 45138  87.8912  17.3583 0001567 115.9506 244.1783 13.10370931321004

JSON: /api/v1/satellites/45138 · /tle

For live sub-satellite position, see the globe view (requires WebGL).

§ Visibility from observer

Set your observer location to see the next 7 days of passes ≥ 10°. The values pass through the URL so the page stays shareable.

No JS? Fill the form by hand. The geolocation button needs JavaScript.